Regional Weather Roundup
Issued by NWS Goodland, KS

Home | Current Version | Previous Version | Graphics & Text | Print | Product List | Glossary On
Versions: 1 2 3 4 5 6 7 8 9 10 11 12 13 14 15 16 17 18 19 20 21 22 23 24 25 26 27 28 29 30 31 32 33 34 35 36 37 38 39 40 41 42 43 44 45 46 47 48 49 50
000
ASUS43 KGLD 162208
RWRGLD

GOODLAND FORECAST AREA HOURLY WEATHER ROUNDUP
NATIONAL WEATHER SERVICE GOODLAND KS
400 PM MDT WED AUG 16 2017

...OFFICIAL OBSERVATIONS...

CITY           SKY/WX    TMP DP  RH WIND       PRES   REMARKS
GOODLAND KS    MOSUNNY   77  53  43 NW15G21   30.00S
HILL CITY KS   MOSUNNY   84  62  47 W10       29.90F
IMPERIAL NEB   CLOUDY    78  54  43 N17       30.00R
MCCOOK NEB     CLOUDY    73  66  78 N16G25    29.95R
AKRON CO       SUNNY     75  47  36 N16G26    30.08S
BURLINGTON CO  SUNNY     77  52  41 NW12G25   30.05S
LIMON CO       SUNNY     74  46  36 NW12G22   30.13R
$$

...UNOFFICIAL OBSERVATIONS...

CITY           SKY/WX    TMP DP  RH WIND       PRES   REMARKS
LENORA KS        N/A     79  32  18 NW8         N/A
NORTON KS      MOSUNNY   81  54  39 W10G20    29.91
SHARON SPRINGS   N/A     81  57  43 NW14        N/A
TRENTON NEB      N/A     77  32  19 N10         N/A
KIT CARSON CO    N/A     78  47  33 MISG        N/A
YUMA CO        FAIR      73  39  29 NW14G22   30.04S
$$




USA.gov is the U.S. government's official web portal to all federal, state and local government web resources and services.